Time,TemperatureF,DewpointF,PressureIn,WindDirection,WindDirectionDegrees,WindSpeedMPH,WindSpeedGustMPH,Humidity,HourlyPrecipIn,Conditions,Clouds,dailyrainin,SolarRadiationWatts/m^2,SoftwareType,DateUTC
2013-01-17 00:00:00,35.0,27.0,-100.00,SE,135,8.0,-999.0,74,-99.99,,,-99.99,1.160000,,2013-01-17 05:00:00,
2013-01-17 00:43:00,35.0,27.0,-100.00,SE,135,8.0,-999.0,74,-99.99,,,-99.99,1.160000,,2013-01-17 05:43:00,
2013-01-17 00:53:00,35.0,27.0,-100.00,SE,135,8.0,-999.0,74,-99.99,,,-99.99,1.160000,,2013-01-17 05:53:00,
2013-01-17 03:00:00,33.0,22.0,-100.00,SE,135,4.0,-999.0,62,-99.99,,,-99.99,0.000000,,2013-01-17 08:00:00,
2013-01-17 03:43:00,33.0,22.0,-100.00,SE,135,4.0,-999.0,62,-99.99,,,-99.99,0.000000,,2013-01-17 08:43:00,
2013-01-17 03:53:00,33.0,22.0,-100.00,SE,135,4.0,-999.0,62,-99.99,,,-99.99,0.000000,,2013-01-17 08:53:00,
2013-01-17 06:00:00,29.0,19.0,-100.00,South,180,6.0,-999.0,64,-99.99,,,-99.99,0.000000,,2013-01-17 11:00:00,
2013-01-17 06:43:00,29.0,19.0,-100.00,South,180,6.0,-999.0,64,-99.99,,,-99.99,0.000000,,2013-01-17 11:43:00,
2013-01-17 06:53:00,29.0,19.0,-100.00,South,180,6.0,-999.0,64,-99.99,,,-99.99,0.000000,,2013-01-17 11:53:00,
2013-01-17 09:00:00,29.0,19.0,-100.00,SE,135,7.0,-999.0,64,-99.99,,,-99.99,8.120000,,2013-01-17 14:00:00,
2013-01-17 09:43:00,29.0,19.0,-100.00,SE,135,7.0,-999.0,64,-99.99,,,-99.99,8.120000,,2013-01-17 14:43:00,
2013-01-17 09:53:00,29.0,19.0,-100.00,SE,135,7.0,-999.0,64,-99.99,,,-99.99,8.120000,,2013-01-17 14:53:00,
2013-01-17 12:00:00,27.0,15.0,-100.00,SE,135,11.0,-999.0,61,-99.99,,,-99.99,215.759995,,2013-01-17 17:00:00,
2013-01-17 12:43:00,27.0,15.0,-100.00,SE,135,11.0,-999.0,61,-99.99,,,-99.99,215.759995,,2013-01-17 17:43:00,
2013-01-17 12:53:00,27.0,15.0,-100.00,SE,135,11.0,-999.0,61,-99.99,,,-99.99,215.759995,,2013-01-17 17:53:00,
2013-01-17 15:00:00,24.0,12.0,-100.00,SE,135,12.0,-999.0,60,-99.99,,,-99.99,90.480003,,2013-01-17 20:00:00,
2013-01-17 15:43:00,24.0,12.0,-100.00,SE,135,12.0,-999.0,60,-99.99,,,-99.99,90.480003,,2013-01-17 20:43:00,
2013-01-17 15:54:00,24.0,12.0,-100.00,SE,135,12.0,-999.0,60,-99.99,,,-99.99,90.480003,,2013-01-17 20:54:00,
2013-01-17 18:00:00,22.0,9.0,-100.00,SSE,157,8.0,-999.0,58,-99.99,,,-99.99,5.800000,,2013-01-17 23:00:00,
2013-01-17 18:43:00,22.0,9.0,-100.00,SSE,157,8.0,-999.0,58,-99.99,,,-99.99,5.800000,,2013-01-17 23:43:00,
2013-01-17 18:53:00,22.0,9.0,-100.00,SSE,157,8.0,-999.0,58,-99.99,,,-99.99,5.800000,,2013-01-17 23:53:00,
2013-01-17 21:00:00,23.0,9.0,-100.00,SE,135,12.0,-999.0,54,-99.99,,,-99.99,0.000000,,2013-01-18 02:00:00,
2013-01-17 21:43:00,23.0,9.0,-100.00,SE,135,12.0,-999.0,54,-99.99,,,-99.99,0.000000,,2013-01-18 02:43:00,
2013-01-17 21:53:00,23.0,9.0,-100.00,SE,135,12.0,-999.0,54,-99.99,,,-99.99,0.000000,,2013-01-18 02:53:00,